Track OPTUS B1 (AUSSAT B1) now! OPTUS B1 (AUSSAT B1) is classified as:
1 22087U 92054A 24277.41646677 .00000056 00000-0 00000-0 0 9993 2 22087 12.1209 28.5060 0011927 125.0994 226.1950 0.99203905128538